Weather History for KSHR - December, 2011

Change the Weather History Date:

Tuesday, December 6, 2011

  Actual Average Record
Temperature  
Mean Temperature 21 °F 24 °F  
Max Temperature 40 °F 36 °F 73 °F (1939)
Min Temperature 1 °F 12 °F -28 °F (1972)
Degree Days  
Heating Degree Days 44 41  
Month to date heating degree days 282 243  
Since 1 July heating degree days 1906 2121  
Cooling Degree Days 0 0  
Month to date cooling degree days 0 0  
Year to date cooling degree days 511 419  
Moisture  
Dew Point 10 °F    
Average Humidity 62    
Maximum Humidity 80    
Minimum Humidity 44    
Precipitation  
Precipitation 0.00 in 0.02 in 0.37 in (1971)
Month to date precipitation 0.12 0.12  
Year to date precipitation 18.30 13.72  
Sea Level Pressure  
Sea Level Pressure 30.17 in    
Wind  
Wind Speed 4 mph (WSW)    
Max Wind Speed 16 mph    
Max Gust Speed 18 mph    
Visibility 10 miles    
Events      
T = Trace of Precipitation, MM = Missing Value Source: NWS Daily Summary

Daily Weather History Graph

Daily Weather History Graph

Search for Another Location

Airport or City:

Trip Planner

Search our weather history database for the weather conditions in past years. The results will help you decide how hot, cold, wet, or windy it might be!

Date:

Astronomy

Dec. 06, 2011 Rise Set
Actual Time 7:30 AM MST 4:27 PM MST
Civil Twilight 6:57 AM MST 5:00 PM MST
Nautical Twilight 6:20 AM MST 5:37 PM MST
Astronomical Twilight 5:44 AM MST 6:12 PM MST
Moon 2:01 PM MST (12/6) 3:45 AM MST (12/6)
Length of Visible Light 10h 03m
Length of Day
8h 57m
Waxing Gibbous, 87% of the Moon is Illuminated
Dec 6
Waxing Gibbous
Dec 10
Full
Dec 17
Last Quarter
Dec 24
New
Dec 31
First Quarter

Hourly Weather History & Observations

Time (MST) Temp. Windchill Dew Point Humidity Pressure Visibility Wind Dir Wind Speed Gust Speed Precip Events Conditions
12:53 AM 5.0 °F - -4.0 °F 66% 30.06 in 10.0 mi Calm Calm - N/A   Clear
1:53 AM 1.0 °F - -4.0 °F 79% 30.25 in 10.0 mi Calm Calm - N/A   Clear
2:53 AM 5.0 °F - -2.9 °F 70% 30.22 in 10.0 mi Calm Calm - N/A   Clear
3:53 AM 6.1 °F -4.3 °F -2.0 °F 69% 30.23 in 10.0 mi NNW 5.8 mph - N/A   Clear
4:53 AM 3.9 °F -6.9 °F -2.0 °F 76% 30.24 in 10.0 mi South 5.8 mph - N/A   Clear
5:53 AM 7.0 °F 0.1 °F -0.9 °F 70% 30.23 in 10.0 mi South 3.5 mph - N/A   Clear
6:53 AM 7.0 °F - 1.0 °F 77% 30.23 in 10.0 mi Calm Calm - N/A   Clear
7:53 AM 10.0 °F 3.6 °F 1.9 °F 70% 30.19 in 10.0 mi SSW 3.5 mph - N/A   Clear
8:53 AM 14.0 °F - 3.9 °F 64% 30.20 in 10.0 mi Calm Calm - N/A   Clear
9:53 AM 19.0 °F - 7.0 °F 59% 30.17 in 10.0 mi Calm Calm - N/A   Clear
10:53 AM 21.9 °F - 10.9 °F 63% 30.15 in 10.0 mi Calm Calm - N/A   Clear
11:53 AM 28.4 °F - 15.8 °F 59% 29.95 in 10.0 mi Calm Calm - N/A   Clear
12:53 PM 37.0 °F 33.3 °F 19.9 °F 50% 30.08 in 10.0 mi South 4.6 mph - N/A   Clear
1:53 PM 37.0 °F 34.5 °F 18.0 °F 46% 30.09 in 10.0 mi SSW 3.5 mph - N/A   Clear
2:53 PM 39.0 °F - 19.9 °F 46% 30.08 in 10.0 mi Calm Calm - N/A   Clear
3:53 PM 32.0 °F 28.7 °F 19.9 °F 61% 30.12 in 10.0 mi WSW 3.5 mph - N/A   Clear
4:53 PM 26.1 °F 18.4 °F 17.1 °F 69% 30.17 in 10.0 mi WSW 6.9 mph - N/A   Clear
5:53 PM 25.0 °F 20.7 °F 17.1 °F 72% 30.18 in 10.0 mi North 3.5 mph - N/A   Clear
6:53 PM 28.9 °F 21.1 °F 16.0 °F 58% 30.19 in 10.0 mi WNW 8.1 mph - N/A   Clear
7:53 PM 21.9 °F 17.2 °F 15.1 °F 75% 30.22 in 10.0 mi SE 3.5 mph - N/A   Clear
8:53 PM 26.1 °F 20.5 °F 15.1 °F 63% 30.21 in 10.0 mi NW 4.6 mph - N/A   Clear
9:53 PM 32.0 °F 23.0 °F 16.0 °F 52% 30.18 in 10.0 mi WNW 11.5 mph - N/A   Clear
10:53 PM 32.0 °F 22.5 °F 16.0 °F 52% 30.19 in 10.0 mi WNW 12.7 mph - N/A   Clear
11:53 PM 32.0 °F 22.5 °F 16.0 °F 52% 30.17 in 10.0 mi WNW 12.7 mph - N/A   Clear